Regional Weather Roundup
Issued by NWS

Home | Current Version | Previous Version | Text Only | Print | Product List | Glossary On
Versions: 1 2 3 4 5 6 7 8 9 10 11 12 13 14 15 16 17 18 19 20 21 22 23 24 25 26 27 28 29 30 31 32 33 34 35 36 37 38 39 40 41 42 43 44 45 46 47 48 49 50
000
ASUS42 KFFC 290603
RWRGA
WEATHER ROUNDUP FOR GEORGIA
NATIONAL WEATHER SERVICE PEACHTREE CITY GA
200 AM EDT FRI MAY 29 2015

NOTE: "FAIR" INDICATES FEW OR NO CLOUDS BELOW 12,000 FEET WITH NO
SIGNIFICANT WEATHER AND/OR OBSTRUCTIONS TO VISIBILITY.

* = USE WITH CAUTION. THE STATIONS MARKED WITH AN ASTERISK MAY NOT
REPORT WEATHER SUCH AS PRECIPITATION, FOG, OR THUNDER AND ARE NOT
QUALITY CONTROLLED BY NWS.

THE REMARK "TC" DENOTES TEMPERATURE READING IN DEGREES CELSIUS.

GAZ001>058-290700-
NORTH GEORGIA

CITY           SKY/WX    TMP DP  RH WIND       PRES   REMARKS
ATLANTA        MOCLDY    70  66  87 CALM      30.17F
6HR MIN TEMP:  69; 6HR MAX TEMP:  71; 6HR PCP:  0.02;

ATHENS         CLOUDY    68  67  96 VRB5      30.19F FOG
6HR MIN TEMP:  67; 6HR MAX TEMP:  73;

CHAMBLEE       PTCLDY    67  66  97 E5        30.17F
6HR MIN TEMP:  67; 6HR MAX TEMP:  70; 6HR PCP:  0.01;

PEACHTREE CITY PTCLDY    68  66  93 CALM      30.17F
6HR MIN TEMP:  68; 6HR MAX TEMP:  71;

ROME           PTCLDY    68  66  93 CALM      30.14F
6HR MIN TEMP:  68; 6HR MAX TEMP:  71;

WEST ATLANTA   CLOUDY    69  67  93 CALM      30.17F
6HR MIN TEMP:  68; 6HR MAX TEMP:  71; 6HR PCP: TRACE;

GAINESVILLE    CLEAR     67  65  93 E5        30.22F
6HR MIN TEMP:  66; 6HR MAX TEMP:  70; 6HR PCP:  0.01;

CARTERSVILLE   PTCLDY    67  65  93 CALM      30.16F
6HR MIN TEMP:  66; 6HR MAX TEMP:  71;



CITY           SKY/WX    TMP DP  RH WIND       PRES   REMARKS
DALTON*        MOCLDY    64  64 100 CALM      30.17F
MARIETTA       PTCLDY    67  67  99 E2        30.17F
BLAIRSVILLE*   HAZE      63  55  77 CALM      30.23F VSB 1/4
$$

GAZ059>098-102>109-290700-
CENTRAL GEORGIA

CITY           SKY/WX    TMP DP  RH WIND       PRES   REMARKS
AUGUSTA-BUSH   CLOUDY    69  65  86 E5        30.18F
6HR MIN TEMP:  68; 6HR MAX TEMP:  80;

AUGUSTA-DANIEL CLEAR     72  62  71 SE6       30.20F
6HR MIN TEMP:  72; 6HR MAX TEMP:  84;

COLUMBUS       MOCLDY    70  66  87 E5        30.12F
6HR MIN TEMP:  70; 6HR MAX TEMP:  76;

MACON          CLEAR     66  65  96 CALM      30.15F
6HR MIN TEMP:  66; 6HR MAX TEMP:  81;

ROBINS AFB     CLEAR     67  65  91 N2        30.15F


CITY           SKY/WX    TMP DP  RH WIND       PRES   REMARKS
LAGRANGE*      CLOUDY    72  72 100 CALM      30.14F FOG
SYLVANIA*      CLEAR     66  65  96 E3        30.18F
MILLEDGEVILLE* CLEAR     72  70  94 CALM      30.17F
$$

GAZ099>101-110>166-290700-
SOUTH GEORGIA

CITY           SKY/WX    TMP DP  RH WIND       PRES   REMARKS
SAVANNAH       CLEAR     68  64  87 E5        30.17F
6HR MIN TEMP:  66; 6HR MAX TEMP:  77;

VALDOSTA       CLEAR     66  60  81 CALM      30.14F
6HR MIN TEMP:  66; 6HR MAX TEMP:  83;

ALMA           PTCLDY    63  60  90 CALM      30.15F
6HR MIN TEMP:  62; 6HR MAX TEMP:  80;

FT STEWART     CLEAR     64  62  93 CALM      30.14F
ALBANY         PTCLDY    71  67  87 SE3       30.15F
HUNTER AFB     CLEAR     66  64  92 CALM      30.14F
MOODY AFB      CLEAR     66  59  78 E5        30.13F
BRUNSWICK        N/A     64  63  94 CALM      30.16F


CITY           SKY/WX    TMP DP  RH WIND       PRES   REMARKS
BAINBRIDGE*    MOCLDY    73  72  94 CALM      30.13F
MOULTRIE*      PTCLDY    72  61  68 CALM      30.16F
VIDALIA*       CLEAR     68  64  88 CALM      30.17F
WAYCROSS*      PTCLDY    64  63  94 CALM      30.15F
DOUGLAS*       PTCLDY    70  61  73 CALM      30.17F
$$


USA.gov is the U.S. government's official web portal to all federal, state and local government web resources and services.